User: anonymous
Location: Unspecified
(0.0000°N, 0.0000°E)
Time: 10:12:47
(UTC+02:00)
Language:

NOAA 12 - Orbit

View from above orbital plane
View from above orbital plane
View from above satellite
View from above satellite

Ground track
Ground track

The orbit data is extracted from the following two-line orbital elements,

1 21263U 91032A   14107.45018639  .00000092  00000-0  57257-4 0  2385
2 21263 098.6688 134.9816 0014444 058.7470 076.0604 14.25649322191902
Epoch (UTC): 17 April 2014 10:48:16
Eccentricity: 0.0014444
inclination: 98.6688°
perigee height: 796 km
apogee height: 816 km
right ascension of ascending node: 134.9816°
argument of perigee: 58.7470°
revolutions per day: 14.25649322
mean anomaly at epoch: 76.0604°
orbit number at epoch: 19190

The dashed part of the orbit path shows where the satellite is in the earth's shadow,  

DLR